Meteo Giornale » Osservazioni meteo Stati Uniti (USA) » San Carlos
ore: 13:47 - Osservazioni Meteo San Carlos
Lat. 37° 31' N Lon. 122° 15' W Alt. 1 metri s.l.m.
18 °C
Molto Nuvoloso
Temp. 24 Ore
14 °C
23 °C
Ovest
14.8 Km/h
Dew point 12 °C
Umidità 67 %
Visibilità 10 Km
Il sole sorge alle ore 06:38
Il sole tramonta alle ore 19:39
| Data e Ora | Cielo e Fenomeni | T °C | DP °C | Um. % | Pres. hPa | Vis. km | Vento km/h | |
|---|---|---|---|---|---|---|---|---|
| Oggi h: 13:47 | Molto Nuvoloso | 18 | 12 | 67 | 1015 | 10 | O 14.8 | |
| Oggi h: 12:47 | Coperto | 18 | 12 | 67 | 1015 | 10 | O/NO 16.7 | |
| Oggi h: 11:47 | Coperto | 18 | 12 | 67 | 1015 | 10 | O/SO 18.5 | |
| Oggi h: 10:47 | Coperto | 17 | 13 | 77 | 1015 | 10 | S/SO 13 | |
| Oggi h: 09:50 | Coperto | 16 | 12 | 77 | 1015 | 10 | O/SO 9.3 | |
| Oggi h: 08:50 | Coperto | 16 | 12 | 77 | 1015 | 10 | N 0 | |
| Oggi h: 07:50 | Coperto | 15 | 12 | 82 | 1015 | 10 | O/SO 11.1 | |
| Oggi h: 06:55 | Coperto | 15 | 13 | 87 | 1014 | 14 | O/SO 11.1 | |
| Oggi h: 06:35 | Coperto | 15 | 13 | 87 | 1013 | 14 | O/SO 14.8 | |
| Oggi h: 06:15 | Molto Nuvoloso | 15 | 12 | 82 | 1013 | 14 | N 5.5 | |
| Oggi h: 05:55 | Poco Nuvoloso | 15 | 12 | 82 | 1013 | 14 | O/SO 13 | |
| Oggi h: 05:35 | Sereno | 14 | 12 | 87 | 1013 | 10 | SO 9.3 | |
| Oggi h: 05:15 | Sereno | 14 | 12 | 87 | 1013 | 10 | N 0 | |
| Oggi h: 04:55 | Poco Nuvoloso | 14 | 12 | 87 | 1013 | 14 | N 0 | |
| Oggi h: 04:35 | Molto Nuvoloso | 14 | 12 | 87 | 1013 | 10 | N 0 | |
| Oggi h: 04:15 | Molto Nuvoloso | 15 | 12 | 82 | 1013 | 14 | S/SO 7.4 | |
| Oggi h: 03:55 | Coperto | 15 | 12 | 82 | 1013 | 10 | N 0 | |
| Oggi h: 03:35 | Coperto | 15 | 12 | 82 | 1012 | 14 | N 0 | |
| Oggi h: 03:15 | Molto Nuvoloso | 15 | 12 | 82 | 1012 | 14 | N 0 | |
| Oggi h: 02:55 | Molto Nuvoloso | 15 | 12 | 82 | 1012 | 14 | N 0 | |
| Oggi h: 02:35 | Coperto | 15 | 12 | 82 | 1012 | 10 | N 0 | |
| Oggi h: 02:15 | Molto Nuvoloso | 15 | 12 | 82 | 1012 | 10 | N 0 | |
| Oggi h: 01:55 | Nuvoloso | 15 | 12 | 82 | 1012 | 10 | N 0 | |
| Oggi h: 01:35 | Sereno | 15 | 12 | 82 | 1012 | 10 | O 7.4 | |
| Oggi h: 01:15 | Sereno | 15 | 12 | 82 | 1013 | 10 | N 0 | |
| Oggi h: 00:55 | Sereno | 15 | 12 | 82 | 1013 | 10 | N 0 | |
| Oggi h: 00:35 | Sereno | 15 | 12 | 82 | 1013 | 14 | N 0 | |
| Oggi h: 00:15 | Sereno | 15 | 12 | 82 | 1012 | 10 | N 5.5 | |
| Ieri h: 23:55 | Sereno | 16 | 12 | 77 | 1013 | 10 | N 0 | |
| Ieri h: 23:35 | Sereno | 16 | 12 | 77 | 1013 | 10 | N 0 | |
| Ieri h: 23:15 | Sereno | 16 | 12 | 77 | 1013 | 10 | O 7.4 | |
| Ieri h: 22:55 | Sereno | 16 | 12 | 77 | 1013 | 10 | N 5.5 | |
| Ieri h: 22:35 | Sereno | 15 | 12 | 82 | 1012 | 14 | N 0 | |
| Ieri h: 22:15 | Sereno | 16 | 12 | 77 | 1012 | 10 | NO 7.4 | |
| Ieri h: 21:55 | Sereno | 16 | 12 | 77 | 1013 | 10 | NO 11.1 | |
| Ieri h: 21:35 | Sereno | 16 | 12 | 77 | 1012 | 10 | NO 9.3 | |
| Ieri h: 21:15 | Sereno | 16 | 12 | 77 | 1012 | 10 | NO 11.1 | |
| Ieri h: 20:45 | Sereno | 16 | 11 | 72 | 1012 | 10 | O/NO 11.1 | |
| Ieri h: 18:53 | Sereno | 19 | 12 | 63 | 1011 | 10 | O/NO 18.5 | |
| Ieri h: 15:45 | Sereno | 23 | 13 | 53 | 1012 | 10 | N 0 | |



